Location: Bucharest
(44.4268°N, 26.1025°E)
Time: 00:49:21
(UTC+03:00)

SPROUT - Pass Details

Date: 29 June 2022
Orbit: 588 x 599 km, 97.9° (Epoch: 11 August)

Event Time Altitude Azimuth Distance (km) Brightness Sun altitude
Exits shadow 03:01:08 22° 263° (W) 1,324 ? -18.4°
Maximum altitude 03:01:16 22° 266° (W) 1,322 ? -18.4°
Drops below altitude 10° 03:04:30 10° 317° (NW) 1,923 ? -18.2°
Sets 03:07:06 0° 333° (NNW) 2,830 ? -18.0°
